Wind_Speed
16 18 20 21 21 21 22 23 22 22 22 22 22 24 25 27 26 28 30 30 33 35 36 37 37 37 37 37 37 38 38 36 38 39 38 35 35 35 36 36 34 33 35 38 40 45 51 47 43 37 35 39 36 34
19 20 21 23 22 23 24 25 25 24 24 24 26 28 29 31 32 32 33 34 36 39 41 41 41 41 38 37 37 38 37 36 35 34 35 35 35 35 34 33 35 35 34 34 37 39 42 49 49 45 39 38 38 30
23 23 23 23 24 27 27 26 27 28 29 31 33 34 35 35 36 36 36 39 40 42 45 44 41 38 36 35 35 35 34 32 33 32 32 32 31 32 33 27 27 34 35 32 31 30 36 42 45 48 41 37 38 37
23 23 23 23 24 26 28 29 30 31 32 32 35 36 36 36 36 37 39 40 42 45 45 43 38 33 33 32 32 33 33 31 29 28 27 25 26 28 27 29 28 29 30 31 33 30 35 36 37 29 32 38 40 38
24 24 25 25 27 28 30 31 32 33 34 34 34 34 35 35 37 39 41 42 44 43 40 36 33 32 31 30 29 29 28 27 26 25 21 19 21 21 20 21 19 23 25 28 28 33 34 28 31 38 33 29 31 30
28 28 27 25 27 29 31 31 30 31 31 30 31 32 35 38 40 42 39 42 39 36 32 32 31 31 30 29 27 26 25 24 24 22 17 15 15 12 11 12 18 22 22 19 26 22 26 26 30 32 32 34 29 23
31 31 31 33 35 33 33 31 30 30 30 30 33 37 39 40 40 39 40 38 33 31 30 30 30 28 27 26 26 23 21 19 17 14 12 11 10 15 9 12 14 22 21 19 17 11 25 28 25 23 24 26 30 29
32 29 30 32 32 31 29 28 27 28 31 33 37 38 39 39 39 38 36 33 30 29 29 29 27 26 25 24 23 20 17 14 11 10 9 11 12 10 10 12 17 12 11 13 11 8 14 20 24 25 22 22 24 26
27 26 27 28 26 24 26 27 28 30 33 37 38 38 39 39 37 34 31 29 27 27 28 27 25 25 24 21 18 16 14 11 7 6 5 9 9 8 11 9 8 11 14 15 18 19 21 21 20 23 21 21 21 23
28 26 25 25 26 28 28 29 30 33 37 38 38 39 37 35 32 29 27 27 26 27 27 25 25 24 20 19 16 14 12 10 6 4 5 8 5 6 8 5 6 7 9 11 15 19 20 21 21 20 19 20 19 21
27 28 29 30 31 31 31 32 33 36 39 39 38 36 34 31 28 26 25 25 26 26 26 25 22 22 20 17 16 12 12 8 5 4 6 4 6 4 8 8 8 7 9 12 13 15 16 17 19 19 19 17 17 22
34 34 34 34 34 35 36 36 37 39 39 38 34 33 29 26 25 25 24 24 24 25 21 20 20 21 20 17 17 13 11 7 7 5 4 8 14 4 9 7 7 9 8 8 10 15 17 16 13 15 17 17 15 20
39 40 39 38 38 37 36 37 38 38 38 35 31 28 26 25 24 24 25 24 23 21 19 18 18 20 18 17 15 10 8 7 7 5 3 6 4 9 6 9 22 11 6 7 12 16 18 20 16 15 16 17 16 13
38 38 39 39 39 38 37 35 36 36 34 31 27 24 24 24 23 24 25 24 22 20 20 18 17 19 16 14 8 7 6 7 4 5 12 7 7 9 12 11 10 15 15 8 8 9 11 13 16 16 17 14 21 19
37 36 37 35 36 35 35 36 33 31 30 27 24 23 22 23 23 25 23 21 20 21 19 17 16 17 13 9 5 5 5 5 6 11 13 10 7 7 10 10 10 11 14 15 15 6 10 10 11 14 17 17 16 15
39 37 35 35 33 31 30 31 30 29 26 22 22 23 22 22 24 23 20 20 20 20 18 17 14 13 9 7 5 6 5 8 11 5 10 15 8 7 10 8 8 6 11 15 16 12 6 8 7 9 14 15 13 14
37 35 34 32 29 27 27 27 27 25 23 21 21 20 21 23 23 22 20 21 18 20 18 15 13 10 6 5 3 8 9 8 5 9 7 8 6 7 9 9 7 7 11 13 11 10 7 8 6 8 11 12 14 19
33 35 33 30 29 28 29 26 24 22 21 21 20 20 22 22 21 21 21 20 19 18 15 13 10 9 10 6 2 6 10 7 6 8 6 5 8 7 6 6 7 8 11 10 9 8 10 10 3 11 10 6 6 15
32 32 31 29 28 27 25 22 22 20 20 19 19 20 20 20 19 19 19 18 17 15 12 10 10 13 12 5 6 10 9 9 7 6 4 1 3 3 2 4 6 8 9 9 9 7 7 8 6 9 12 9 11 7
27 26 27 26 24 24 23 18 19 19 18 18 18 19 18 18 18 17 17 15 13 13 12 12 13 14 13 4 4 7 11 7 4 4 3 2 4 1 1 3 6 8 9 11 9 7 3 3 4 5 4 4 6 5
22 22 22 22 21 20 19 17 17 16 18 19 17 18 17 17 16 15 13 11 9 9 9 9 10 12 14 7 4 7 9 7 5 2 2 1 2 2 2 4 4 8 8 9 11 8 6 1 1 1 2 2 4 9
18 18 18 18 17 17 16 15 14 15 16 16 17 17 16 15 13 10 8 6 4 4 4 6 11 11 13 9 8 7 7 5 4 1 4 4 3 6 7 8 5 4 7 8 8 7 8 4 5 3 3 4 5 2
15 15 15 16 15 14 13 13 14 12 13 15 15 15 14 12 10 9 7 8 11 10 8 9 12 11 13 10 9 5 5 5 4 5 6 7 7 8 8 6 4 4 6 7 3 4 6 4 5 5 2 3 3 5
13 14 14 13 13 12 12 12 13 14 14 15 14 13 12 10 9 7 4 8 10 6 8 12 12 10 12 8 6 8 10 9 9 12 13 11 9 8 8 7 6 5 7 5 5 5 5 5 6 7 10 11 8 7
12 12 12 11 11 11 12 13 15 15 14 15 14 12 11 9 10 9 7 6 9 2 5 11 11 11 11 9 7 8 9 10 11 10 11 10 9 10 11 10 9 10 10 8 5 6 9 11 11 11 12 11 11 11
13 11 10 9 11 14 15 15 14 14 14 13 12 11 9 10 11 10 6 6 8 9 9 7 7 8 9 8 9 9 9 10 10 10 9 11 10 10 9 10 10 10 10 8 9 9 10 10 8 8 10 10 10 10
11 10 10 12 14 14 15 16 15 14 13 13 12 11 10 11 13 13 13 7 7 6 6 5 6 6 7 10 11 11 11 10 12 13 11 10 11 13 14 11 12 13 15 15 14 13 10 8 8 8 8 8 9 10
8 8 12 12 13 13 15 15 12 11 11 11 10 11 11 15 15 13 12 6 3 4 4 5 5 7 8 9 8 6 6 6 6 6 7 7 9 11 11 11 10 10 9 10 9 8 7 10 10 11 12 13 14 15
7 10 12 13 14 15 13 12 12 10 11 10 11 11 15 15 15 13 12 12 6 4 5 7 7 5 3 4 7 7 5 3 3 3 5 5 4 4 3 4 5 7 8 10 10 10 12 14 15 17 19 20 21 21
8 10 11 13 13 13 14 15 12 9 12 12 11 14 17 18 16 13 12 10 7 5 6 6 4 3 2 3 1 3 3 4 4 2 0 2 4 6 7 8 10 12 15 17 18 19 20 20 21 21 22 23 25 26
8 10 11 11 12 10 8 6 4 2 5 9 11 11 14 16 12 13 12 10 8 8 6 5 6 4 4 3 0 1 5 3 3 4 7 9 10 11 13 15 18 19 20 20 20 21 22 24 25 25 26 26 27 27
7 9 9 6 6 8 10 10 8 8 8 9 11 12 13 15 15 13 11 11 10 8 6 9 9 7 5 4 3 4 6 9 11 13 14 15 16 19 20 21 21 21 22 23 24 26 26 27 28 28 28 29 28 27
5 5 2 7 8 9 9 11 10 13 15 16 15 15 14 14 14 11 9 8 8 8 8 8 7 5 5 7 9 11 13 15 16 17 19 21 21 21 21 21 22 25 27 28 28 27 27 26 26 26 26 26 27 27
Wind_Direction
285 283 285 286 288 297 299 309 315 321 317 314 316 318 317 316 313 312 308 307 310 312 314 317 314 309 304 300 294 290 289 288 288 287 284 280 274 270 269 268 265 257 256 252 250 247 245 247 251 244 245 249 255 253
291 290 287 292 288 294 301 307 309 309 312 311 313 317 321 320 318 315 311 309 312 311 311 315 314 310 306 301 297 295 294 291 286 282 280 278 277 273 270 266 261 261 255 251 251 251 247 244 245 249 244 245 244 243
289 289 290 291 289 292 299 302 304 303 303 304 306 308 309 313 315 315 312 312 312 314 312 315 311 308 305 303 302 299 296 292 288 284 281 280 277 272 267 256 252 253 252 248 245 249 247 246 248 249 243 242 244 242
289 290 291 292 294 295 296 300 301 301 303 306 309 308 307 310 312 311 312 314 315 315 313 311 308 308 307 305 302 301 300 295 290 286 284 280 284 276 266 258 256 257 255 252 246 255 252 247 243 229 242 240 240 241
288 287 287 290 295 298 298 298 300 304 304 305 309 312 313 313 313 313 315 315 315 313 311 310 310 310 309 306 306 307 302 300 296 289 281 284 286 270 268 261 259 249 245 256 244 253 235 238 238 242 241 235 234 235
295 287 286 288 298 301 303 299 300 306 308 309 312 313 314 313 314 315 315 316 316 313 310 312 314 314 312 311 310 307 304 302 300 299 287 290 288 293 292 265 259 246 246 246 239 241 227 225 231 236 231 234 230 232
296 291 288 285 293 296 300 300 300 304 308 310 312 313 314 315 316 315 317 316 315 312 313 316 317 317 316 314 311 311 308 307 302 303 295 295 291 297 292 251 245 240 236 224 251 236 213 240 238 234 233 230 231 235
295 291 289 294 292 294 297 299 301 305 308 311 312 314 315 314 313 315 316 315 314 314 317 318 318 318 317 313 310 310 312 311 300 307 293 304 292 301 280 291 268 270 262 246 246 230 232 225 231 232 236 232 238 232
293 294 297 297 294 295 297 298 302 307 311 313 313 314 313 313 313 314 313 312 313 317 319 319 319 318 319 317 318 311 313 313 292 305 299 308 326 312 314 283 257 241 246 239 239 240 238 240 240 237 241 226 223 238
289 295 295 293 297 298 297 298 301 307 311 312 311 312 311 312 312 313 313 314 316 320 320 320 316 316 315 313 317 314 310 308 288 286 301 328 338 9 328 320 282 285 272 261 246 247 245 248 249 245 235 231 233 223
287 291 290 290 291 292 294 293 297 306 311 311 312 310 312 311 311 311 312 315 318 320 319 315 315 315 316 309 313 311 304 293 262 279 328 321 351 316 318 309 308 293 260 260 263 250 247 243 248 243 232 231 234 219
284 283 283 285 289 290 293 294 297 306 306 308 310 310 309 308 309 310 314 316 319 320 317 314 318 317 315 304 299 298 291 259 249 249 280 307 348 328 307 299 303 297 277 259 255 254 253 249 256 241 239 229 228 225
280 282 284 285 288 289 293 295 299 302 303 304 306 306 306 308 309 312 313 314 316 317 307 309 317 321 316 311 303 278 266 233 231 229 278 322 264 321 316 355 25 30 8 304 283 254 249 251 248 254 242 235 207 216
280 282 284 287 289 288 291 294 298 300 302 301 302 302 305 307 308 309 311 312 312 310 304 306 313 325 317 318 305 245 231 211 196 298 301 289 287 308 341 9 36 25 21 5 297 253 249 234 236 241 251 244 226 246
281 283 285 285 288 290 290 294 295 299 298 296 298 299 304 303 306 308 309 306 309 306 305 296 306 317 310 304 277 242 219 205 288 304 271 255 277 306 321 337 342 348 5 5 16 261 241 242 243 229 222 220 224 234
283 281 281 286 292 289 288 290 295 296 290 291 295 301 302 303 305 305 303 302 306 301 301 298 291 298 291 298 264 226 209 288 287 265 282 271 264 286 305 313 311 329 4 3 5 15 259 245 257 253 206 210 228 223
279 277 282 282 283 287 289 292 293 286 285 289 294 299 300 302 303 303 301 304 303 297 296 288 278 276 248 244 273 251 248 264 253 322 295 245 285 306 311 307 298 326 352 0 4 1 354 327 247 197 209 207 204 208
276 275 277 277 280 284 288 286 282 281 284 291 295 298 300 299 300 301 303 305 301 292 288 282 263 238 222 230 229 256 252 230 279 312 296 289 296 313 299 313 328 335 346 358 4 354 4 351 228 186 172 149 192 212
274 273 272 273 277 278 277 275 276 279 283 288 294 298 296 297 299 301 301 301 293 287 278 260 243 226 208 219 243 261 237 227 264 306 329 283 257 258 4 352 354 350 356 13 14 7 20 42 119 129 179 201 165 179
272 270 268 272 272 273 272 269 274 280 282 287 294 295 298 297 300 302 303 300 294 285 265 244 228 221 210 229 256 227 190 174 141 79 79 114 107 57 50 343 11 11 18 26 28 21 353 60 91 123 151 174 185 211
268 270 268 266 269 267 268 272 273 275 282 289 292 293 294 293 297 304 303 298 294 284 263 252 225 222 219 218 189 172 147 136 135 99 42 67 164 178 333 331 8 352 19 47 52 21 27 25 295 143 182 209 293 302
263 264 265 264 263 265 270 269 272 280 284 287 287 289 291 288 292 291 281 277 287 292 254 230 213 211 210 207 194 176 168 165 120 106 266 282 306 306 307 315 340 359 3 23 25 37 35 32 35 96 186 216 201 93
266 266 263 263 265 263 264 273 280 285 289 291 291 291 285 282 278 258 252 267 287 281 253 229 211 207 205 206 210 211 211 219 263 299 296 296 299 308 289 275 271 306 325 337 339 33 21 354 353 351 324 264 240 208
268 266 265 262 260 260 268 276 279 286 293 301 298 289 282 273 252 229 236 319 334 284 234 205 200 198 193 198 209 230 242 252 264 270 280 272 267 293 290 272 276 289 302 298 251 258 296 318 308 286 282 282 275 261
265 269 262 250 258 271 277 282 287 290 291 297 291 282 274 251 225 204 214 294 326 348 162 182 188 189 194 204 217 232 238 249 248 248 269 275 263 272 283 269 273 281 273 280 260 255 275 284 281 266 254 252 247 243
267 263 246 252 273 281 286 291 290 290 292 284 276 269 250 227 209 204 231 311 166 168 174 150 162 185 202 204 210 225 239 250 256 258 269 261 263 261 272 252 306 298 275 272 277 276 281 279 279 271 261 268 278 282
266 254 251 271 283 287 291 292 292 289 282 279 265 246 226 204 193 171 156 118 162 184 190 191 188 194 217 233 242 256 268 261 249 249 261 269 266 267 271 270 267 264 272 276 280 279 264 281 291 280 272 271 275 280
255 255 272 285 293 295 295 291 283 274 271 270 244 223 204 191 180 191 192 193 142 175 200 208 221 253 258 256 264 279 287 279 260 254 255 269 277 281 281 270 271 272 268 289 289 268 268 297 296 295 294 291 289 289
262 280 291 294 295 301 297 291 283 269 259 255 227 204 196 192 193 186 180 199 221 212 206 230 259 274 286 310 294 277 278 274 254 286 284 282 279 302 301 300 303 302 300 303 305 300 296 295 295 295 295 295 295 294
292 294 298 304 304 302 292 290 297 276 235 227 217 205 198 190 183 189 190 198 215 234 237 245 241 209 227 194 115 63 151 128 110 99 335 309 308 304 299 297 298 300 303 304 304 303 301 299 298 298 298 298 297 296
300 309 315 318 310 335 355 3 5 325 223 204 200 191 186 181 175 181 195 201 215 230 247 218 187 179 161 159 338 180 202 268 294 292 296 298 297 294 295 296 298 299 298 298 297 296 296 296 297 296 295 294 294 294
312 318 320 340 18 36 35 28 48 75 102 128 148 160 163 176 189 203 200 202 212 214 199 187 194 183 177 206 254 269 279 289 294 296 296 296 298 300 300 297 295 295 296 297 299 300 300 299 299 299 299 298 298 297
330 314 55 83 86 84 82 107 105 94 105 110 116 126 138 150 156 166 181 187 183 191 191 180 181 195 230 256 271 282 291 298 302 303 303 300 298 296 295 297 301 305 307 305 302 300 300 300 300 299 299 298 298 299
Height
5834 5834 5833 5833 5832 5830 5829 5827 5824 5822 5820 5817 5815 5811 5809 5806 5804 5801 5797 5793 5790 5785 5780 5777 5772 5767 5763 5759 5755 5750 5748 5744 5740 5736 5734 5733 5732 5731 5730 5730 5731 5733 5733 5734 5736 5739 5744 5749 5754 5759 5765 5766 5772 5778
5830 5829 5828 5827 5826 5825 5823 5821 5818 5816 5814 5811 5809 5806 5802 5799 5795 5792 5788 5785 5781 5775 5771 5766 5760 5755 5751 5746 5742 5738 5736 5732 5728 5726 5724 5721 5720 5719 5718 5718 5718 5721 5722 5724 5726 5728 5731 5734 5738 5745 5753 5758 5763 5769
5825 5823 5822 5821 5820 5819 5817 5814 5812 5809 5807 5805 5801 5798 5795 5791 5787 5783 5779 5774 5770 5765 5759 5755 5749 5744 5739 5735 5730 5727 5723 5720 5716 5714 5712 5710 5709 5707 5705 5706 5706 5707 5709 5713 5715 5717 5719 5723 5727 5733 5740 5748 5752 5757
5818 5817 5816 5815 5813 5812 5810 5807 5805 5802 5799 5796 5793 5789 5786 5782 5778 5774 5769 5765 5760 5754 5748 5744 5739 5735 5730 5725 5720 5716 5712 5709 5706 5704 5702 5700 5698 5695 5695 5695 5697 5699 5701 5702 5705 5707 5709 5713 5718 5723 5728 5735 5741 5745
5812 5811 5809 5808 5806 5804 5802 5799 5797 5794 5791 5787 5784 5780 5777 5774 5770 5765 5759 5754 5749 5745 5738 5733 5729 5725 5721 5716 5712 5708 5703 5700 5698 5695 5694 5693 5690 5687 5687 5688 5691 5689 5691 5694 5697 5696 5697 5703 5709 5714 5720 5724 5729 5735
5805 5803 5802 5800 5799 5796 5794 5791 5788 5786 5782 5779 5775 5772 5768 5764 5760 5756 5751 5745 5739 5734 5730 5725 5722 5717 5712 5708 5704 5701 5697 5694 5690 5688 5688 5687 5683 5682 5683 5683 5682 5682 5684 5686 5690 5686 5691 5696 5701 5706 5713 5717 5722 5727
5797 5795 5793 5792 5790 5788 5786 5783 5780 5778 5775 5771 5768 5764 5760 5755 5751 5746 5742 5736 5731 5727 5723 5719 5715 5710 5706 5701 5697 5695 5691 5689 5686 5684 5683 5681 5680 5679 5678 5677 5677 5677 5680 5682 5684 5685 5687 5691 5695 5699 5704 5709 5714 5719
5788 5786 5785 5783 5781 5779 5777 5774 5772 5770 5767 5763 5760 5755 5751 5746 5742 5737 5732 5728 5724 5720 5716 5712 5708 5704 5700 5696 5692 5690 5687 5685 5683 5681 5681 5679 5678 5676 5676 5677 5677 5678 5678 5680 5682 5682 5684 5688 5691 5695 5699 5703 5707 5711
5780 5778 5776 5774 5773 5771 5769 5767 5765 5762 5759 5755 5751 5747 5742 5738 5733 5729 5725 5721 5718 5715 5709 5706 5702 5699 5695 5691 5689 5686 5684 5682 5681 5680 5679 5678 5676 5674 5674 5672 5673 5675 5675 5676 5677 5678 5680 5683 5686 5690 5695 5697 5701 5703
5773 5771 5770 5768 5766 5764 5762 5759 5757 5754 5750 5746 5742 5738 5733 5729 5725 5722 5717 5715 5711 5708 5704 5700 5697 5694 5692 5687 5686 5684 5681 5680 5679 5679 5677 5676 5675 5674 5674 5673 5673 5673 5673 5673 5674 5675 5677 5679 5681 5684 5688 5692 5695 5696
5765 5764 5762 5760 5758 5756 5753 5751 5748 5745 5742 5738 5733 5729 5725 5722 5718 5714 5712 5709 5706 5702 5699 5695 5693 5689 5687 5685 5682 5681 5679 5678 5677 5677 5676 5675 5671 5673 5672 5671 5671 5669 5669 5670 5670 5671 5672 5674 5676 5680 5683 5686 5689 5692
5757 5756 5753 5751 5750 5748 5745 5742 5739 5736 5733 5729 5725 5721 5718 5715 5712 5710 5706 5704 5700 5697 5694 5691 5689 5685 5683 5681 5679 5679 5677 5676 5676 5676 5675 5673 5671 5672 5671 5670 5668 5667 5666 5667 5667 5668 5669 5671 5672 5675 5678 5682 5685 5688
5747 5746 5744 5742 5740 5738 5735 5733 5730 5727 5724 5720 5717 5713 5711 5709 5705 5703 5700 5698 5695 5692 5689 5687 5685 5682 5679 5677 5675 5675 5674 5675 5675 5675 5674 5672 5672 5670 5668 5667 5664 5660 5663 5663 5662 5663 5664 5665 5669 5672 5674 5678 5680 5683
5736 5735 5734 5732 5730 5728 5726 5723 5720 5718 5715 5712 5709 5707 5704 5701 5699 5697 5695 5692 5690 5687 5685 5683 5681 5679 5676 5674 5672 5672 5673 5673 5674 5674 5672 5672 5671 5669 5668 5667 5665 5664 5662 5660 5659 5658 5658 5661 5665 5667 5670 5673 5676 5678
5726 5724 5723 5722 5720 5719 5717 5715 5712 5708 5707 5705 5703 5700 5698 5696 5694 5691 5689 5686 5684 5682 5680 5679 5678 5676 5674 5673 5671 5672 5672 5672 5673 5672 5671 5671 5670 5669 5668 5667 5666 5665 5662 5659 5657 5655 5656 5658 5660 5660 5664 5668 5672 5673
5715 5714 5713 5712 5710 5708 5707 5706 5703 5700 5698 5698 5696 5693 5692 5690 5687 5685 5683 5681 5679 5676 5675 5674 5673 5673 5672 5671 5670 5670 5671 5671 5670 5671 5670 5669 5670 5669 5668 5667 5666 5666 5664 5661 5658 5656 5656 5656 5656 5658 5660 5664 5667 5669
5704 5704 5703 5702 5701 5700 5698 5697 5695 5693 5691 5691 5689 5688 5686 5684 5681 5678 5677 5675 5673 5671 5670 5668 5669 5669 5670 5670 5669 5668 5669 5669 5669 5669 5668 5668 5669 5669 5668 5667 5666 5666 5665 5662 5660 5658 5657 5655 5655 5656 5660 5662 5664 5667
5694 5694 5694 5693 5692 5691 5691 5689 5687 5687 5685 5684 5683 5682 5680 5678 5675 5673 5671 5669 5667 5665 5664 5664 5664 5665 5667 5667 5667 5667 5667 5667 5668 5668 5667 5668 5668 5669 5667 5666 5666 5666 5665 5664 5661 5659 5657 5653 5651 5654 5659 5662 5663 5666
5683 5684 5684 5684 5683 5682 5682 5681 5680 5680 5679 5678 5676 5676 5674 5672 5670 5668 5666 5663 5661 5660 5660 5659 5661 5662 5664 5665 5666 5665 5666 5667 5668 5668 5667 5667 5667 5666 5667 5666 5666 5664 5663 5662 5661 5660 5658 5657 5657 5657 5658 5659 5662 5665
5674 5675 5675 5675 5674 5674 5674 5675 5674 5674 5673 5672 5671 5669 5668 5667 5665 5663 5661 5659 5657 5656 5656 5656 5657 5659 5662 5663 5664 5664 5665 5666 5667 5667 5666 5665 5666 5667 5667 5667 5666 5665 5665 5663 5661 5661 5660 5660 5659 5659 5660 5661 5663 5665
5667 5667 5667 5667 5667 5667 5669 5668 5668 5668 5667 5666 5665 5664 5663 5662 5660 5659 5657 5655 5654 5653 5653 5654 5655 5657 5659 5661 5662 5664 5665 5666 5666 5666 5665 5666 5667 5667 5667 5667 5667 5666 5666 5665 5663 5662 5660 5661 5661 5661 5661 5662 5662 5662
5661 5660 5661 5661 5661 5662 5663 5662 5663 5663 5662 5661 5660 5659 5658 5657 5656 5656 5655 5654 5653 5652 5651 5652 5653 5656 5658 5660 5662 5663 5665 5666 5666 5666 5666 5666 5667 5667 5667 5667 5668 5667 5665 5666 5665 5664 5663 5662 5661 5662 5663 5663 5664 5664
5656 5656 5656 5657 5657 5657 5659 5657 5657 5657 5657 5656 5655 5654 5653 5653 5653 5653 5653 5652 5651 5651 5650 5650 5652 5654 5657 5660 5661 5662 5664 5665 5665 5665 5665 5666 5666 5666 5665 5666 5667 5667 5666 5666 5665 5665 5664 5662 5661 5661 5662 5662 5663 5663
5652 5652 5652 5652 5653 5653 5654 5653 5653 5652 5652 5651 5650 5649 5649 5649 5649 5651 5652 5650 5648 5647 5647 5648 5651 5654 5658 5660 5661 5662 5663 5664 5664 5664 5664 5665 5665 5665 5664 5664 5664 5665 5665 5664 5663 5663 5663 5662 5662 5661 5660 5659 5659 5659
5650 5650 5649 5649 5650 5650 5650 5649 5649 5648 5647 5647 5646 5645 5645 5645 5646 5648 5650 5649 5648 5648 5648 5649 5651 5654 5657 5659 5660 5660 5661 5661 5662 5662 5662 5662 5662 5662 5662 5662 5661 5661 5662 5662 5662 5661 5661 5659 5658 5657 5656 5656 5657 5657
5645 5646 5646 5647 5647 5646 5646 5645 5644 5643 5643 5642 5641 5641 5641 5643 5645 5647 5649 5648 5649 5650 5651 5651 5653 5654 5656 5657 5658 5659 5660 5660 5659 5659 5659 5659 5659 5660 5660 5660 5660 5659 5658 5658 5658 5658 5657 5656 5655 5655 5654 5654 5654 5654
5643 5643 5644 5644 5643 5642 5641 5640 5639 5638 5637 5637 5636 5637 5638 5640 5643 5647 5648 5648 5650 5651 5651 5653 5653 5654 5655 5655 5655 5656 5657 5657 5657 5657 5657 5657 5658 5657 5657 5657 5657 5656 5655 5654 5654 5653 5653 5653 5653 5653 5653 5652 5652 5651
5640 5641 5640 5640 5639 5638 5636 5635 5634 5633 5633 5632 5632 5634 5636 5639 5642 5645 5647 5649 5650 5651 5651 5652 5653 5653 5653 5653 5654 5654 5654 5653 5654 5654 5655 5655 5654 5653 5653 5653 5653 5652 5652 5651 5651 5650 5651 5650 5649 5649 5648 5647 5646 5645
5638 5638 5638 5636 5635 5633 5631 5630 5629 5629 5629 5629 5630 5632 5634 5637 5640 5643 5646 5648 5650 5650 5651 5651 5651 5651 5651 5651 5651 5651 5651 5651 5652 5652 5652 5651 5651 5651 5651 5650 5650 5650 5649 5649 5649 5649 5648 5647 5645 5643 5642 5641 5639 5638
5636 5635 5634 5633 5631 5629 5627 5624 5623 5623 5624 5625 5627 5629 5632 5635 5639 5642 5645 5647 5648 5649 5649 5650 5650 5651 5651 5651 5651 5651 5651 5652 5652 5652 5652 5651 5651 5650 5650 5649 5649 5647 5646 5644 5643 5643 5641 5640 5638 5637 5636 5634 5632 5630
5634 5633 5631 5629 5627 5625 5624 5623 5621 5621 5621 5622 5625 5628 5631 5635 5639 5641 5643 5645 5647 5647 5648 5649 5650 5650 5651 5651 5652 5651 5652 5653 5652 5652 5651 5650 5649 5648 5647 5646 5644 5643 5641 5640 5638 5636 5634 5633 5631 5629 5627 5625 5624 5622
5633 5632 5630 5628 5627 5627 5626 5624 5623 5622 5621 5623 5626 5629 5632 5635 5638 5641 5643 5644 5646 5647 5647 5648 5649 5650 5651 5651 5652 5652 5652 5652 5651 5650 5649 5647 5645 5644 5642 5640 5638 5636 5634 5632 5630 5628 5626 5623 5621 5619 5616 5615 5613 5611
5632 5632 5630 5630 5630 5630 5629 5629 5628 5628 5627 5628 5630 5632 5634 5637 5639 5642 5643 5644 5646 5646 5647 5649 5650 5651 5651 5651 5651 5650 5649 5648 5647 5646 5644 5643 5641 5639 5637 5635 5633 5630 5628 5625 5622 5619 5617 5614 5612 5610 5607 5605 5604 5602